Weather reports worldwide

Advertisment
San Sebastian/Igueldo, Spain (8027): temperature & dewpoint: 16.02.2019 22:00:00 - 22.02.2019 22:00:00 (CET)San Sebastian/Igueldo, Spain (8027): wind speed: 16.02.2019 22:00:00 - 22.02.2019 22:00:00 (CET)San Sebastian/Igueldo, Spain (8027): wind direction: 16.02.2019 22:00:00 - 22.02.2019 22:00:00 (CET)San Sebastian/Igueldo, Spain (8027): reduced air pressure: 16.02.2019 22:00:00 - 22.02.2019 22:00:00 (CET)San Sebastian/Igueldo, Spain (8027): visibility: 16.02.2019 22:00:00 - 22.02.2019 22:00:00 (CET)
Date & Time tt [°C] td [°C] ff [km/h] ff [kn] dd ppp [hPa] vv [km]
22.02.2019 22:00:00 15,2 3,4 11 6 SE 1028,6 20
22.02.2019 21:00:00 - - - - - - -
22.02.2019 20:00:00 - - - - - - -
22.02.2019 19:00:00 17,4 1,4 11 6 ENE 1028,1 15
22.02.2019 18:00:00 - - - - - - -
22.02.2019 17:00:00 - - - - - - -
22.02.2019 16:00:00 18,4 1,9 11 6 NNE 1028,0 18
22.02.2019 15:00:00 - - - - - - -
22.02.2019 14:00:00 - - - - - - -
22.02.2019 13:00:00 19,2 0,3 9 5 E 1029,5 18
22.02.2019 12:00:00 - - - - - - -
22.02.2019 11:00:00 - - - - - - -
22.02.2019 10:00:00 14,2 2,5 13 7 SSE 1030,4 18
22.02.2019 09:00:00 - - - - - - -
22.02.2019 08:00:00 - - - - - - -
22.02.2019 07:00:00 12,4 2,3 15 8 SSE 1029,9 30
22.02.2019 06:00:00 - - - - - - -
22.02.2019 05:00:00 - - - - - - -
22.02.2019 04:00:00 13,4 2,6 16 9 SSE 1029,5 30
22.02.2019 03:00:00 - - - - - - -
22.02.2019 02:00:00 - - - - - - -
22.02.2019 01:00:00 14,4 2,3 21 11 SSE 1029,2 30
22.02.2019 00:00:00 - - - - - - -
21.02.2019 23:00:00 - - - - - - -
21.02.2019 22:00:00 15,2 2,7 18 10 SSE 1028,4 30
21.02.2019 21:00:00 - - - - - - -
21.02.2019 20:00:00 - - - - - - -
21.02.2019 19:00:00 17,0 3,3 13 7 SE 1026,4 25
21.02.2019 18:00:00 - - - - - - -
21.02.2019 17:00:00 - - - - - - -
21.02.2019 16:00:00 19,8 2,2 22 12 SSE 1025,4 25
21.02.2019 15:00:00 - - - - - - -
21.02.2019 14:00:00 - - - - - - -
21.02.2019 13:00:00 17,0 4,3 28 15 S 1026,2 30
21.02.2019 12:00:00 - - - - - - -
21.02.2019 11:00:00 - - - - - - -
21.02.2019 10:00:00 12,0 3,0 29 16 S 1026,6 30
21.02.2019 09:00:00 - - - - - - -
21.02.2019 08:00:00 - - - - - - -
21.02.2019 07:00:00 11,0 3,3 35 19 S 1025,3 35
21.02.2019 06:00:00 - - - - - - -
21.02.2019 05:00:00 - - - - - - -
21.02.2019 04:00:00 11,3 4,1 29 16 SSE 1025,4 30
21.02.2019 03:00:00 - - - - - - -
21.02.2019 02:00:00 - - - - - - -
21.02.2019 01:00:00 12,0 5,2 18 10 SSE 1024,6 30
21.02.2019 00:00:00 - - - - - - -
20.02.2019 23:00:00 - - - - - - -
20.02.2019 22:00:00 11,2 6,5 8 4 SSE 1024,3 30
20.02.2019 21:00:00 - - - - - - -
20.02.2019 20:00:00 - - - - - - -
20.02.2019 19:00:00 11,8 7,3 4 2 WNW 1023,0 20
20.02.2019 18:00:00 - - - - - - -
20.02.2019 17:00:00 - - - - - - -
20.02.2019 16:00:00 16,6 5,6 9 5 NNE 1022,0 20
20.02.2019 15:00:00 - - - - - - -
20.02.2019 14:00:00 - - - - - - -
20.02.2019 13:00:00 15,6 4,0 21 11 S 1022,3 15
20.02.2019 12:00:00 - - - - - - -
20.02.2019 11:00:00 - - - - - - -
20.02.2019 10:00:00 11,8 3,3 29 16 SSE 1021,9 15
20.02.2019 09:00:00 - - - - - - -
20.02.2019 08:00:00 - - - - - - -
20.02.2019 07:00:00 11,0 2,8 29 16 SSE 1020,7 25
20.02.2019 06:00:00 - - - - - - -
20.02.2019 05:00:00 - - - - - - -
20.02.2019 04:00:00 10,4 4,1 18 10 SSE 1020,9 25
20.02.2019 03:00:00 - - - - - - -
20.02.2019 02:00:00 - - - - - - -
20.02.2019 01:00:00 7,2 6,8 21 11 SSE 1021,3 25
20.02.2019 00:00:00 - - - - - - -
19.02.2019 23:00:00 - - - - - - -
19.02.2019 22:00:00 8,2 7,8 15 8 SSE 1021,3 12
19.02.2019 21:00:00 - - - - - - -
19.02.2019 20:00:00 - - - - - - -
19.02.2019 19:00:00 8,8 8,0 4 2 N 1020,9 25
19.02.2019 18:00:00 - - - - - - -
19.02.2019 17:00:00 - - - - - - -
19.02.2019 16:00:00 10,6 7,7 8 4 NW 1021,1 25
19.02.2019 15:00:00 - - - - - - -
19.02.2019 14:00:00 - - - - - - -
19.02.2019 13:00:00 9,5 7,1 11 6 NW 1022,5 30
19.02.2019 12:00:00 - - - - - - -
19.02.2019 11:00:00 - - - - - - -
19.02.2019 10:00:00 8,8 6,4 8 4 W 1022,9 30
19.02.2019 09:00:00 - - - - - - -
19.02.2019 08:00:00 - - - - - - -
19.02.2019 07:00:00 8,0 7,1 11 6 W 1021,7 30
19.02.2019 06:00:00 - - - - - - -
19.02.2019 05:00:00 - - - - - - -
19.02.2019 04:00:00 8,3 7,2 16 9 WNW 1021,7 30
19.02.2019 03:00:00 - - - - - - -
19.02.2019 02:00:00 - - - - - - -
19.02.2019 01:00:00 8,8 7,7 4 2 SW 1021,7 25
19.02.2019 00:00:00 - - - - - - -
18.02.2019 23:00:00 - - - - - - -
18.02.2019 22:00:00 9,5 8,9 8 4 W 1021,1 15
18.02.2019 21:00:00 - - - - - - -
18.02.2019 20:00:00 - - - - - - -
18.02.2019 19:00:00 9,8 9,0 5 3 N 1019,1 15
18.02.2019 18:00:00 - - - - - - -
18.02.2019 17:00:00 - - - - - - -
18.02.2019 16:00:00 11,6 8,5 11 6 N 1018,5 18
18.02.2019 15:00:00 - - - - - - -
18.02.2019 14:00:00 - - - - - - -
18.02.2019 13:00:00 11,6 7,1 13 7 N 1019,0 40
18.02.2019 12:00:00 - - - - - - -
18.02.2019 11:00:00 - - - - - - -
18.02.2019 10:00:00 13,0 -5,5 34 18 SSE 1018,6 40
18.02.2019 09:00:00 - - - - - - -
18.02.2019 08:00:00 - - - - - - -
18.02.2019 07:00:00 11,5 -4,2 34 18 SSE 1017,9 50
18.02.2019 06:00:00 - - - - - - -
18.02.2019 05:00:00 - - - - - - -
18.02.2019 04:00:00 13,0 -6,0 29 16 SSE 1017,3 50
18.02.2019 03:00:00 - - - - - - -
18.02.2019 02:00:00 - - - - - - -
18.02.2019 01:00:00 14,6 -5,7 34 18 SSE 1017,0 50
18.02.2019 00:00:00 - - - - - - -
17.02.2019 23:00:00 - - - - - - -
17.02.2019 22:00:00 15,5 -11,8 34 18 SSE 1017,6 50
17.02.2019 21:00:00 - - - - - - -
17.02.2019 20:00:00 - - - - - - -
17.02.2019 19:00:00 16,9 -11,7 29 16 SSE 1017,6 50
17.02.2019 18:00:00 - - - - - - -
17.02.2019 17:00:00 - - - - - - -
17.02.2019 16:00:00 20,2 -11,2 28 15 SSE 1017,9 60
17.02.2019 15:00:00 - - - - - - -
17.02.2019 14:00:00 - - - - - - -
17.02.2019 13:00:00 18,2 -12,7 41 22 SSE 1019,8 50
17.02.2019 12:00:00 - - - - - - -
17.02.2019 11:00:00 - - - - - - -
17.02.2019 10:00:00 15,0 -22,2 39 21 SSE 1020,9 60
17.02.2019 09:00:00 - - - - - - -
17.02.2019 08:00:00 - - - - - - -
17.02.2019 07:00:00 14,6 -30,1 55 30 SSE 1019,6 50
17.02.2019 06:00:00 - - - - - - -
17.02.2019 05:00:00 - - - - - - -
17.02.2019 04:00:00 14,6 -16,6 50 27 SSE 1020,3 45
17.02.2019 03:00:00 - - - - - - -
17.02.2019 02:00:00 - - - - - - -
17.02.2019 01:00:00 15,4 -11,9 50 27 SSE 1021,0 50
17.02.2019 00:00:00 - - - - - - -
16.02.2019 23:00:00 - - - - - - -
16.02.2019 22:00:00 15,8 -11,6 37 20 SSE 1021,7 50

tt = temperature
td = dewpoint
ff = wind speed
dd = wind direction
ppp = reduced air pressure
vv = visibility

Next stations